sat.trackr.live / text

‹ back to catalog

STARLINK-36308

NORAD 68543 · 2026-070B

PAYLOAD ACTIVE UNKNOWN

§ Identity

Operator
Country
US
Launch date
2026-04-02
Launch site
AFETR
Launch vehicle
Mass (kg)
RCS (m²)

Purposes: comms

External: N2YO · Heavens-Above · Gunter

§ Orbital elements

Epoch: 2026-05-25T00:24:41.319360Z

Period
93.85 min
Inclination
53.1610°
Eccentricity
0.0000958
Mean motion
15.34421089 rev/d
Perigee alt
462.0 km
Apogee alt
463.3 km
Semi-major
6,840.8 km
B*
5.1947e-4
RAAN
7.8551°
Arg perigee
78.1607°
Mean anomaly
281.9503°
Rev number
824

§ Raw data

STARLINK-363081 68543U 26070B   26145.01714490  .00017227  00000+0  51947-3 0  99922 68543  53.1610   7.8551 0000958  78.1607 281.9503 15.34421089  8240

JSON: /api/v1/satellites/68543 · /tle

For live sub-satellite position, see the globe view (requires WebGL).

§ Visibility from observer

Set your observer location to see the next 7 days of passes ≥ 10°. The values pass through the URL so the page stays shareable.

No JS? Fill the form by hand. The geolocation button needs JavaScript.